AirNav   Air Wisconsin Up To $57,000 Bonus
 
 623 users online  

1TE4 Zuehl Airport
Marion, Texas, USA

GOING TO MARION?


FAA INFORMATION EFFECTIVE 04 NOVEMBER 2021

Location

FAA Identifier: 1TE4
Lat/Long: 29-29-43.8330N 098-09-28.0320W
29-29.730550N 098-09.467200W
29.4955092,-98.1577867
(estimated)
Elevation: 592 ft. / 180 m (estimated)
Variation: 07E (1985)
From city: 4 miles S of MARION, TX
Time zone: UTC -5 (UTC -6 during Standard Time)
Zip code: 78124

Airport Operations

Airport use: Private use. Permission required prior to landing
Activation date: 06/1974
Control tower: no
ARTCC: HOUSTON CENTER
FSS: SAN ANGELO FLIGHT SERVICE STATION
Attendance: CONTINUOUS
Wind indicator: yes
Segmented circle: no

Airport Communications

WX ASOS at BAZ (14 nm NE): 119.325 (830-629-7979)
WX ASOS at SAT (16 nm W): PHONE 210-805-5583
WX ASOS at SSF (19 nm SW): PHONE 210-927-9391

Nearby radio navigation aids

VOR radial/distance  VOR name  Freq  Var
RNDr097/6.8RANDOLPH VORTAC112.3005E
SATr111/18.2SAN ANTONIO VORTAC116.8008E
SSFr037/(20.6)STINSON VOR108.4009E

Airport Services

Fuel available: 100
Airframe service: NONE
Powerplant service: NONE

Runway Information

Runway 17/35

Dimensions: 3000 x 200 ft. / 914 x 61 m
Surface: turf
RUNWAY 17  RUNWAY 35
Traffic pattern: leftright
Runway end identifier lights: nono
Obstructions: trees, 800 ft. from runway, 14:1 slope to cleartrees, 800 ft. from runway, 14:1 slope to clear

Airport Ownership and Management from official FAA records

Ownership: Privately-owned
Owner: ZUEHL APT FLYING COMM OWNRS ASSN
P.O. BOX 430
MARION, TX 78124
Phone 210-279-9528
Manager: ZUEHL ARPT FLYING COMM OWNRS ASSN
P.O. BOX 430
MARION, TX 78124
Phone 210-279-9528
BILL SMITH 12223 BROWNSTONE LIVE OAK, TX 78233 210-279-9528 WILNLIL@EARTHLINK.NET

Airport Operational Statistics

Aircraft based on the field: 105
Single engine airplanes: 100
Helicopters: 1
Ultralights: 4
    
Aircraft operations: avg 86/week
89% local general aviation
11% transient general aviation

Additional Remarks

ACFT WINGSPAN LTD TO 60 FT.
ARPT LCTD IN CLOSE PROXIMITY TO RANDOLPH AFB.
FOR CD CTC SAN ANTONIO APCH AT 210-805-5516.
OWNER DESIRES CHARTING.

Instrument Procedures

There are no published instrument procedures at 1TE4.

Some nearby airports with instrument procedures:

KRND - Randolph Air Force Base (7 nm W)
KBAZ - New Braunfels Regional Airport (14 nm NE)
KSAT - San Antonio International Airport (16 nm W)
KSSF - Stinson Municipal Airport (19 nm SW)
KSKF - Kelly Field Airport (23 nm W)
 
Loc | Ops | Rwys | IFR | FBO | Links
Com | Nav | Svcs | Stats | Notes
Area around 1TE4 (Zuehl Airport)
 
Road maps at: MapQuest Bing Google
 
Aerial photo
WARNING: Photo may not be current or correct
Aerial photo of 1TE4 (Zuehl Airport)
Photo by “Krusty”
Photo taken 22-Jan-2011
looking north.

Do you have a better or more recent aerial photo of Zuehl Airport that you would like to share? If so, please send us your photo.

 
Sectional chart

 
Airport distance calculator
Flying to Zuehl Airport? Find the distance to fly.

From to 1TE4

Sunrise and sunset
Times for 01-Dec-2021
 Local
(UTC-6)
 Zulu
(UTC)
Morning civil twilight06:4512:45
Sunrise07:1113:11
Sunset17:3323:33
Evening civil twilight17:5823:58

Current date and time
Zulu (UTC)  01-Dec-2021 07:44:13
Local (UTC-6)  01-Dec-2021 01:44:13
 
METAR
KRND 
6nm W 
010741Z AUTO 33003KT 3SM BR CLR 11/11 A3010 RMK AO2 VIS 3/8 RWY33R SLP189
KSEQ 
14nm E 
010658Z AUTO 19004KT 1 3/4SM R13/3000FT BR CLR 13/13 A3016 RMK AO2 VIS 1 1/4V1 3/4 SLP212 T01300128
KBAZ 
14nm NE 
010738Z AUTO 32004KT 1 3/4SM BR CLR 11/11 A3012 RMK AO2 T01060106
KSAT 
16nm W 
010651Z 20003KT 10SM SCT250 14/13 A3013 RMK AO2 SLP190 T01440128
KSSF 
19nm SW 
010653Z AUTO 00000KT 10SM CLR 12/11 A3011 RMK AO2 SLP192 T01220106
TAF
KRND 
6nm W 
010030Z 0100/0123 15009KT 9999 FEW170 QNH3006INS BECMG 0108/0109 VRB06KT 4800 BR OVC012 QNH3009INS BECMG 0111/0112 VRB06KT 4800 BR OVC005 QNH3012INS BECMG 0114/0115 15006KT 9999 NSW SCT005 BKN015 QNH3019INS BECMG 0116/0117 19007KT 9999 BKN025 QNH3015INS BECMG 0117/0118 20007KT 9999 SCT030 QNH3008INS TX21/0117Z TN14/0112Z LAST NO AMDS AFT 0101 NEXT 0111
KSAT 
16nm W 
010522Z 0106/0212 16008KT P6SM SCT250 FM011000 20004KT 2SM BR BKN004 FM011500 22006KT P6SM SCT010 BKN250 FM011700 21006KT P6SM FEW035 BKN250 FM020600 VRB04KT P6SM BKN250
KSSF 
19nm SW 
010522Z 0106/0206 14004KT P6SM SCT250 FM011000 00000KT 2SM BR BKN004 FM011500 23005KT P6SM SCT012 BKN250 FM011700 21005KT P6SM FEW035 BKN250
NOTAMs
Click for the latest NOTAMs
NOTAMs are issued by the DoD/FAA and will open in a separate window not controlled by AirNav.

 

 
 

Would you like to see your business listed on this page?

 If your business provides an interesting product or service to pilots, flight crews, aircraft, or users of the Zuehl Airport, you should consider listing it here.  To start the listing process, click on the button below
 
Add a business
 

Other Pages about Zuehl Airport

www.zuehlfield.com
 
Update a link
 
Copyright © AirNav, LLC. All rights reserved. Privacy Policy  Contact